Regional Weather Roundup
Issued by NWS Little Rock, AR

Home | Current Version | Previous Version | Text Only | Print | Product List | Glossary Off
Versions: 1 2 3 4 5 6 7 8 9 10 11 12 13 14 15 16 17 18 19 20 21 22 23 24 25 26 27 28 29 30 31 32 33 34 35 36 37 38 39 40 41 42 43 44 45 46 47 48 49 50

000
ASUS44 KLZK 220505
RWRLZK

WEATHER ROUNDUP FOR ARKANSAS
NATIONAL WEATHER SERVICE LITTLE ROCK AR
1100 PM CST SUN DEC 21 2014

NOTE: "FAIR" INDICATES FEW OR NO CLOUDS BELOW 12,000 FEET WITH NO
SIGNIFICANT WEATHER AND/OR OBSTRUCTIONS TO VISIBILITY.

ARZ001-003-010-029-220600-
NORTHWEST ARKANSAS

CITY           SKY/WX    TMP DP  RH WIND       PRES   REMARKS
FAYETTEVILLE   CLOUDY    44  41  89 S7        29.81F
FORT SMITH     CLOUDY    47  41  80 E3        29.83S
HARRISON       CLOUDY    44  37  76 SE8       29.83F
BENTONVILLE    CLOUDY    43  39  87 SE7       29.81F
ROGERS         LGT RAIN  42  40  92 SE5       29.81F FOG
SILOAM SPGS    CLOUDY    43  37  81 S6        29.82F
HIGHFILL       CLOUDY    43  42  97 S8        29.80F FOG
$$

ARZ004-005-016-220600-
NORTH CENTRAL ARKANSAS

CITY           SKY/WX    TMP DP  RH WIND       PRES   REMARKS
BATESVILLE     CLOUDY    45  37  76 E6        29.89F
FLIPPIN        CLOUDY    43  34  70 E6        29.86F
MTN HOME       CLOUDY    42  36  79 SE8       29.86F
$$

ARZ040-041-220600-
WEST CENTRAL ARKANSAS

CITY           SKY/WX    TMP DP  RH WIND       PRES   REMARKS
MENA           CLOUDY    50  46  87 SW5       29.84R
MOUNT IDA      CLOUDY    51  42  71 VRB6      29.80F
$$

ARZ009-017-025-026-028-220600-
NORTHEAST ARKANSAS

CITY           SKY/WX    TMP DP  RH WIND       PRES   REMARKS
CORNING        CLOUDY    45  37  76 E8        29.93F
JONESBORO      MOCLDY    42  37  82 E6        29.93S
NEWPORT        LGT RAIN  43  40  89 E6        29.92F FOG
WALNUT RIDGE   CLOUDY    43  36  75 E7        29.91F
BLYTHEVILLE    CLOUDY    45  36  70 SE7       29.94F
$$

ARZ022-023-033-042-044-220600-
CENTRAL ARKANSAS

CITY           SKY/WX    TMP DP  RH WIND       PRES   REMARKS
LITTLE ROCK    MOCLDY    45  36  70 E7        29.87F
N LITTLE ROCK  MOCLDY    46  40  77 SE9       29.87F
JACKSONVILLE   CLEAR     46  37  71 E5        29.87F
SEARCY         CLOUDY    46  37  71 E5        29.91F
HOT SPRINGS    CLOUDY    49  40  71 SE9       29.85F
RUSSELLVILLE   CLOUDY    49  38  65 E7        29.84F
CLINTON        CLOUDY    46  39  76 CALM      29.90F
$$

ARZ036-220600-
EAST ARKANSAS

CITY           SKY/WX    TMP DP  RH WIND       PRES   REMARKS
WEST MEMPHIS   PTCLDY    45  42  89 S14       29.92F
$$

ARZ050-053-066-070-073-220600-
SOUTHWEST ARKANSAS

CITY           SKY/WX    TMP DP  RH WIND       PRES   REMARKS
ARKADELPHIA    FAIR      39  39 100 N3        29.86F
CAMDEN         CLEAR     45  41  87 MISG      29.87F
TEXARKANA      CLOUDY    48  45  89 SW6       29.87R
EL DORADO      CLEAR     46  43  89 SE8       29.88F
DE QUEEN       CLOUDY    50  45  83 CALM      29.85R
$$

ARZ056-057-069-220600-
SOUTHEAST ARKANSAS

CITY           SKY/WX    TMP DP  RH WIND       PRES   REMARKS
PINE BLUFF     CLEAR     41  37  86 SE6       29.89F
STUTTGART      MOCLDY    45  36  70 SE7       29.90F
MONTICELLO     CLEAR     42  38  85 SE3       29.90F

$$




USA.gov is the U.S. government's official web portal to all federal, state and local government web resources and services.